User: anonymous   Login
Location: Famechon
(49.7599°N, 2.0615°E)
Time: 09:44:38
(UTC+00:00)
Language:

Cosmos 1741 Rocket - Orbit

View from above orbital plane
View from above orbital plane
View from above satellite
View from above satellite

Ground track
Ground track

The orbit data is extracted from the following two-line orbital elements,

1 16682U 86030B   25131.92872078  .00000291  00000-0  10683-3 0  9998
2 16682  74.0249 324.4470 0014852 320.2050 183.5930 14.37109984 45102
Epoch (UTC): 11 May 2025 22:17:21
Eccentricity: 0.0014852
inclination: 74.0249°
perigee height: 757 km
apogee height: 778 km
right ascension of ascending node: 324.4470°
argument of perigee: 320.2050°
revolutions per day: 14.37109984
mean anomaly at epoch: 183.5930°
orbit number at epoch: 4510

The dashed part of the orbit path shows where the satellite is in the earth's shadow,  

DLR